This demonstration page uses our WeatherBlox Daily Observations layout. Learn more.

Left ArrowRight Arrow

44.8408, -93.29828

Hourly Observations for March 11, 2020

Temp ( °F °C ) Dew Point ( °F °C ) Humidity (%) Winds ( mph kmh ) Pressure ( in mb ) Visibility ( mi km ) Precip ( " mm )
12:53 am 00:53 Cloudy with Mist and Fog 34 1.1 31 -0.6 89 89 E 3 6 30.11 1020 6 10 0.00 0.00
1:19 am 01:19 Cloudy with Mist and Fog 34 1.1 31 -0.6 89 89 E 5 7 30.11 1020 6 10 0.00 0.00
1:53 am 01:53 Cloudy with Mist and Fog 34 1.1 32 0 92 92 Calm 30.09 1019 6 10 0.00 0.00
2:53 am 02:53 Cloudy with Mist and Fog 34 1.1 31 -0.6 89 89 Calm 30.07 1018 4 6 0.00 0.00
3:53 am 03:53 Cloudy with Mist and Fog 34 1.1 31 -0.6 89 89 Calm 30.06 1018 6 10 0.00 0.00
4:53 am 04:53 Cloudy with Mist and Fog 34 1.1 31 -0.6 89 89 Calm 30.04 1017 4 6 0.00 0.00
5:53 am 05:53 Cloudy with Mist and Fog 34 1.1 32 0 92 92 Calm 30.04 1017 3 5 0.00 0.00
6:53 am 06:53 Cloudy with Mist and Fog 34 1.1 32 0 92 92 Calm 30.04 1017 3 4 0.00 0.00
7:01 am 07:01 Cloudy with Mist and Fog 34 1.1 32 0 92 92 Calm 30.05 1018 3 4 0.00 0.00
7:13 am 07:13 Cloudy with Mist and Fog 34 1.1 32 0 92 92 Calm 30.06 1018 3 5 0.00 0.00
7:53 am 07:53 Cloudy with Mist and Fog 34 1.1 31 -0.6 89 89 S 3 6 30.03 1017 2 3 0.00 0.00
8:15 am 08:15 Cloudy with Mist and Fog 34 1.1 32 0 92 92 Calm 30.06 1018 3 5 0.00 0.00
8:53 am 08:53 Cloudy with Mist and Fog 35 1.7 31 -0.6 85 85 VRB 3 6 30.04 1017 3 5 0.00 0.00
9:53 am 09:53 Cloudy 35 1.7 31 -0.6 85 85 SSE 6 9 30.04 1017 9 14 0.00 0.00
10:53 am 10:53 Cloudy 36 2.2 30 -1.1 79 79 S 6 9 30.03 1017 10 16 0.00 0.00
11:53 am 11:53 Cloudy 37 2.8 30 -1.1 76 76 SSE 9 15 30.01 1016 10 16 0.00 0.00
12:53 pm 12:53 Cloudy 38 3.3 30 -1.1 73 73 SSE 12 19 30.00 1016 10 16 0.00 0.00
1:19 pm 13:19 Cloudy 38 3.3 30 -1.1 73 73 S 13 20 30.00 1016 10 16 0.00 0.00
1:53 pm 13:53 Mostly Cloudy 38 3.3 31 -0.6 76 76 SSE 10 17 29.96 1015 10 16 0.00 0.00
2:01 pm 14:01 Mostly Cloudy 38 3.3 30 -1.1 73 73 SE 13 20 29.96 1015 10 16 0.00 0.00
2:38 pm 14:38 Mostly Cloudy 40 4.4 30 -1.1 68 68 S 13 20 29.94 1014 10 16 0.00 0.00
2:53 pm 14:53 Mostly Cloudy 40 4.4 30 -1.1 68 68 S 13 20 29.93 1013 10 16 0.00 0.00
3:53 pm 15:53 Mostly Cloudy 41 5 30 -1.1 65 65 S 17 28 29.89 1012 10 16 0.00 0.00
4:53 pm 16:53 Mostly Cloudy 42 5.6 31 -0.6 65 65 SSE 12 19 29.86 1011 10 16 0.00 0.00
5:41 pm 17:41 Cloudy 42 5.6 34 1.1 73 73 S 13 20 29.85 1011 10 16 0.00 0.00
5:53 pm 17:53 Cloudy 43 6.1 34 1.1 71 71 S 8 13 29.84 1011 10 16 0.00 0.00
6:53 pm 18:53 Cloudy 42 5.6 33 0.6 71 71 S 15 24 29.83 1010 10 16 0.00 0.00
7:53 pm 19:53 Cloudy 41 5 34 1.1 76 76 SSE 9 15 29.81 1009 10 16 0.00 0.00
8:53 pm 20:53 Cloudy 41 5 35 1.7 79 79 SSE 7 11 29.80 1009 10 16 0.00 0.00
9:53 pm 21:53 Mostly Cloudy 41 5 35 1.7 79 79 SE 6 9 29.79 1009 10 16 0.00 0.00
10:53 pm 22:53 Cloudy 41 5 35 1.7 79 79 SE 7 11 29.78 1009 10 16 0.00 0.00
11:53 pm 23:53 Cloudy 40 4.4 35 1.7 83 83 SSE 8 13 29.76 1008 10 16 0.00 0.00

Powered by AerisWeather